Location: Sternwarte_Laufen
(47.9344°N, 12.9346°E)
Time: 02:55:21
(UTC+02:00)

ISS - Pass Details

Date: 09 July 2025
Orbit: 413 x 417 km, 51.6° (Epoch: 12 July)

Event Time Altitude Azimuth Distance (km) Brightness Sun altitude
Rises 00:23:55 0° 268° (W) 2,351 0.2 -18.8°
Reaches altitude 10° 00:26:03 10° 274° (W) 1,490 -0.8 -18.9°
Maximum altitude 00:29:18 47° 350° (N) 560 -2.7 -19.0°
Drops below altitude 10° 00:32:34 10° 66° (ENE) 1,495 -0.8 -19.1°
Sets 00:34:43 0° 73° (ENE) 2,360 0.2 -19.2°
